Weather Roundup
Issued by NWS

Home | Current Version | Previous Version | Graphics & Text | Print | Product List | Glossary Off
Versions: 1 2 3 4 5 6 7 8 9 10 11 12 13 14 15 16 17 18 19 20 21 22 23 24 25 26 27 28 29 30 31 32 33 34 35 36 37 38 39 40 41 42 43 44 45 46 47 48 49 50

000
NZUS93 KARX 052359
HRRWXR

CURRENT HOURLY OBSERVATIONS ACROSS
MUCH OF THE UPPER MISSISSIPPI VALLEY
NATIONAL WEATHER SERVICE LA CROSSE WI
700 PM CDT SUN JUL 05 2015


...SOUTHEAST MINNESOTA...


CITY           SKY/WX    TMP DP  RH WIND       PRES   REMARKS
ROCHESTER      MOSUNNY   80  66  62 S15G29    29.91F
ROCHESTER/MAYO FAIR      81  65  59 SE15      29.90F
WINONA         PTSUNNY   79  64  61 S3        29.91F
AUSTIN         MOSUNNY   82  66  57 S13G20    29.89F
ALBERT LEA     MOSUNNY   82  68  61 S16G22    29.87F
DODGE CENTER   MOSUNNY   81  68  65 S15G23    29.89F
PRESTON        MOSUNNY   78  64  63 S14       29.93F
OWATONNA       MOSUNNY   82  68  61 S20       29.86F
FARIBAULT      MOSUNNY   82  70  65 SE13G22   29.85F
$$

...ELSEWHERE IN MINNESOTA...


CITY           SKY/WX    TMP DP  RH WIND       PRES   REMARKS
MINNEAPOLIS    PTSUNNY   85  69  58 S20       29.82F
INTNL FALLS    CLOUDY    73  62  68 W12G21    29.76R
DULUTH         PTSUNNY   80  68  66 S15G23    29.78F
RED WING       PTSUNNY   84  68  58 S10G16    29.85F
REDWOOD FALLS  MOSUNNY   88  72  58 S16       29.77F HX  94
MANKATO        PTSUNNY   82  70  65 S9G16     29.83F
WORTHINGTON    MOSUNNY   84  70  61 S15G23    29.81F
FAIRMONT       MOSUNNY   84  66  54 S15G21    29.83F
$$

...SOUTHWEST WISCONSIN...


CITY           SKY/WX    TMP DP  RH WIND       PRES   REMARKS
LA CROSSE      MOSUNNY   81  65  58 S15       29.91F
PRAIRIE DU CHI MOSUNNY   81  63  53 SE7       29.95S
BOSCOBEL       MOSUNNY   81  66  60 SW6       29.96F
LONE ROCK      NOT AVBL
PLATTEVILLE    SUNNY     77  66  69 S7        29.98F
FORT MC COY    SUNNY     82  61  49 S10       29.95S
VIROQUA        FAIR      79  64  60 S10G20    29.97F
WIS DELLS      SUNNY     80  62  54 S10       29.97F
$$

...ELSEWHERE IN WISCONSIN...


CITY           SKY/WX    TMP DP  RH WIND       PRES   REMARKS
MILWAUKEE      MOSUNNY   76  59  55 S10       30.01F
MADISON        MOSUNNY   80  63  55 S14       29.98F
GREEN BAY      SUNNY     81  62  52 S9        29.97S
EAU CLAIRE     PTSUNNY   80  65  59 S12G24    29.88F
BLACK RVR FLS  FAIR      81  61  50 S6        29.93F
MEDFORD        MOSUNNY   78  63  59 S12       29.94F
WAUSAU         SUNNY     80  61  52 S13       29.93F
WIS RAPIDS     MOSUNNY   80  61  52 SW8       29.96F
MARSHFIELD     MOSUNNY   80  62  54 S14G20    29.95S
RICE LAKE      PTSUNNY   80  65  59 S13       29.89S
$$

...NORTHEAST IOWA...


CITY           SKY/WX    TMP DP  RH WIND       PRES   REMARKS
DECORAH          N/A    N/A N/A N/A MISG        N/A
MASON CITY     MOSUNNY   82  68  62 S16       29.90F
CHARLES CITY   MOSUNNY   81  70  69 S12G18    29.93F
OELWEIN        SUNNY     81  68  65 S10G18    29.95F
$$

...ELSEWHERE IN IOWA...


CITY           SKY/WX    TMP DP  RH WIND       PRES   REMARKS
DES MOINES     MOSUNNY   85  68  56 SE17G25   29.89F
IOWA CITY      MOSUNNY   82  70  66 SE9       29.96S
FORT DODGE     SUNNY     84  68  58 S12G22    29.87F
$$

...NORTHERN ILLINOIS...


CITY           SKY/WX    TMP DP  RH WIND       PRES   REMARKS
CHICAGO-OHARE  MOSUNNY   79  62  56 S8        30.02S
CHICAGO-MIDWAY MOSUNNY   83  60  45 S9        30.02S
MOLINE         PTSUNNY   80  67  64 SE10      29.98F
ROCKFORD       MOSUNNY   80  64  58 S10       30.02F
PEORIA         SUNNY     82  65  56 S8        30.01F
$$

NOTE: "FAIR" INDICATES FEW OR NO CLOUDS BELOW 12,000 FEET WITH NO
SIGNIFICANT WEATHER AND/OR OBSTRUCTIONS TO VISIBILITY. WIND
SPEEDS ARE IN MILES-PER-HOUR.



USA.gov is the U.S. government's official web portal to all federal, state and local government web resources and services.